Land O' Lakes, WI

4:02 AM CDT on July 21, 2017 (GMT -0500)
Kings Land O'Lakes

Weather History for KLNL - November, 2013

Change the Weather History Date:

Saturday, November 30, 2013

  Actual Average (KEGV) Record (KEGV)
Temperature  
Mean Temperature 28 °F -  
Max Temperature 32 °F 33 °F 55 °F (1998)
Min Temperature 24 °F 18 °F 0 °F (2007)
Degree Days  
Heating Degree Days 37    
Moisture  
Dew Point 22 °F    
Average Humidity 77    
Maximum Humidity 86    
Minimum Humidity 69    
Precipitation  
Precipitation 0.03 in - - ()
Sea Level Pressure  
Sea Level Pressure 30.04 in    
Wind  
Wind Speed 4 mph (SW)    
Max Wind Speed 9 mph    
Max Gust Speed -    
Visibility 10 miles    
Events      
Averages and records for this station are not official NWS values.
T = Trace of Precipitation, MM = Missing Value Source: NWS Daily Summary

Daily Weather History Graph

Daily Weather History Graph

Search for Another Location

Airport or City:

Trip Planner

Search our weather history database for the weather conditions in past years. The results will help you decide how hot, cold, wet, or windy it might be!

Date:

Astronomy

Nov. 30, 2013 Rise Set
Actual Time 7:17 AM CST 4:13 PM CST
Civil Twilight 6:44 AM CST 4:47 PM CST
Nautical Twilight 6:06 AM CST 5:24 PM CST
Astronomical Twilight 5:30 AM CST 6:00 PM CST
Moon 4:21 AM CST (11/30) 2:43 PM CST (11/30)
Length of Visible Light 10h 03m
Length of Day
8h 55m
Waning Crescent, 7% of the Moon is Illuminated
Nov 30
Waning Crescent
Dec 2
New
Dec 9
First Quarter
Dec 17
Full
Dec 25
Last Quarter

Hourly Weather History & Observations

Time (CST) Temp. Windchill Dew Point Humidity Pressure Visibility Wind Dir Wind Speed Gust Speed Precip Events Conditions
12:15 AM 24.1 °F 15.2 °F 17.4 °F 76% 30.19 in 10.0 mi South 8.1 mph - N/A   Overcast
12:35 AM 24.3 °F 17.3 °F 17.6 °F 76% 30.19 in 10.0 mi SSW 5.8 mph - N/A   Overcast
12:55 AM 24.4 °F 16.5 °F 17.6 °F 75% 30.17 in 10.0 mi South 6.9 mph - N/A   Overcast
1:15 AM 24.4 °F 15.6 °F 17.6 °F 75% 30.15 in 10.0 mi SSW 8.1 mph - N/A   Overcast
1:35 AM 24.8 °F 15.3 °F 18.0 °F 75% 30.15 in 10.0 mi South 9.2 mph - N/A   Overcast
1:55 AM 24.8 °F 17.9 °F 18.0 °F 75% 30.14 in 10.0 mi SSW 5.8 mph - N/A   Overcast
2:15 AM 24.8 °F 19.1 °F 18.1 °F 76% 30.13 in 10.0 mi SSW 4.6 mph - N/A   Overcast
2:35 AM 25.2 °F 19.5 °F 18.1 °F 75% 30.13 in 10.0 mi SSW 4.6 mph - N/A   Overcast
2:55 AM 25.2 °F 19.5 °F 18.1 °F 75% 30.11 in 10.0 mi South 4.6 mph - N/A   Overcast
3:15 AM 25.2 °F 19.5 °F 18.3 °F 75% 30.10 in 10.0 mi SSW 4.6 mph - N/A   Overcast
3:35 AM 25.2 °F 17.3 °F 18.5 °F 76% 30.10 in 10.0 mi South 6.9 mph - N/A   Overcast
3:55 AM 25.3 °F 18.5 °F 18.5 °F 75% 30.09 in 10.0 mi South 5.8 mph - N/A   Overcast
4:15 AM 25.5 °F 21.3 °F 18.9 °F 76% 30.08 in 10.0 mi SSW 3.5 mph - N/A   Overcast
4:35 AM 25.5 °F 21.3 °F 19.0 °F 76% 30.08 in 10.0 mi SSW 3.5 mph - N/A   Overcast
4:55 AM 25.5 °F 21.3 °F 19.0 °F 76% 30.07 in 10.0 mi SSW 3.5 mph - N/A   Overcast
5:15 AM 25.5 °F 19.9 °F 19.2 °F 77% 30.06 in 10.0 mi South 4.6 mph - N/A   Overcast
5:35 AM 25.5 °F 21.3 °F 19.4 °F 78% 30.06 in 10.0 mi SSE 3.5 mph - N/A   Overcast
5:55 AM 25.5 °F 21.3 °F 19.4 °F 78% 30.05 in 10.0 mi South 3.5 mph - N/A   Overcast
6:15 AM 25.5 °F - 19.4 °F 78% 30.05 in 10.0 mi Calm Calm - N/A   Overcast
6:35 AM 25.2 °F 20.9 °F 19.4 °F 79% 30.04 in 10.0 mi South 3.5 mph - N/A   Mostly Cloudy
6:55 AM 25.2 °F - 19.8 °F 80% 30.04 in 10.0 mi Calm Calm - N/A   Mostly Cloudy
7:15 AM 25.2 °F - 19.8 °F 80% 30.04 in 10.0 mi Calm Calm - N/A   Mostly Cloudy
7:35 AM 25.2 °F - 19.9 °F 81% 30.03 in 10.0 mi Calm Calm - N/A   Mostly Cloudy
7:55 AM 25.3 °F 21.1 °F 20.1 °F 81% 30.03 in 10.0 mi South 3.5 mph - N/A   Mostly Cloudy
8:15 AM 25.7 °F 21.5 °F 20.3 °F 80% 30.03 in 10.0 mi South 3.5 mph - N/A   Overcast
8:35 AM 26.4 °F 22.4 °F 20.5 °F 78% 30.03 in 10.0 mi South 3.5 mph - N/A   Overcast
8:55 AM 26.6 °F 22.6 °F 20.8 °F 79% 30.02 in 10.0 mi South 3.5 mph - N/A   Overcast
9:15 AM 27.1 °F - 21.0 °F 78% 30.02 in 10.0 mi Calm Calm - N/A   Overcast
9:35 AM 27.5 °F - 21.2 °F 77% 30.02 in 10.0 mi Calm Calm - N/A   Overcast
9:55 AM 28.4 °F 24.6 °F 21.4 °F 75% 30.02 in 10.0 mi SW 3.5 mph - N/A   Overcast
10:15 AM 28.6 °F 24.8 °F 21.7 °F 76% 30.01 in 10.0 mi SW 3.5 mph - N/A   Overcast
10:35 AM 29.3 °F 24.3 °F 21.9 °F 74% 30.01 in 10.0 mi WSW 4.6 mph - N/A   Overcast
10:55 AM 30.2 °F 25.4 °F 22.1 °F 72% 30.01 in 10.0 mi SW 4.6 mph - N/A   Scattered Clouds
11:15 AM 31.5 °F 28.1 °F 22.6 °F 70% 30.00 in 10.0 mi West 3.5 mph - 0.01 in   Clear
11:35 AM 31.8 °F 26.2 °F 22.8 °F 69% 30.00 in 10.0 mi WSW 5.8 mph - 0.01 in   Clear
11:55 AM 32.0 °F 27.5 °F 23.2 °F 70% 29.99 in 10.0 mi SW 4.6 mph - 0.01 in   Clear
12:15 PM 32.0 °F - 23.4 °F 70% 29.98 in 10.0 mi Calm Calm - N/A   Clear
12:35 PM 32.0 °F - 23.4 °F 70% 29.97 in 10.0 mi Calm Calm - N/A   Clear
12:55 PM 32.2 °F - 23.5 °F 70% 29.97 in 10.0 mi Calm Calm - N/A   Clear
1:15 PM 32.5 °F - 23.5 °F 69% 29.97 in 10.0 mi Calm Calm - 0.02 in   Scattered Clouds
1:35 PM 32.7 °F - 23.9 °F 70% 29.96 in 10.0 mi Calm Calm - 0.02 in   Scattered Clouds
1:55 PM 32.5 °F - 23.9 °F 70% 29.96 in 10.0 mi Calm Calm - 0.02 in   Mostly Cloudy
2:15 PM 32.5 °F - 24.3 °F 72% 29.97 in 10.0 mi Calm Calm - N/A   Mostly Cloudy
2:35 PM 32.0 °F - 23.9 °F 72% 29.97 in 10.0 mi Calm Calm - N/A   Mostly Cloudy
2:55 PM 32.4 °F - 23.9 °F 71% 29.98 in 10.0 mi Calm Calm - N/A   Overcast
3:15 PM 32.0 °F 28.7 °F 23.9 °F 72% 29.99 in 10.0 mi NNW 3.5 mph - N/A   Overcast
3:35 PM 32.0 °F 28.7 °F 24.3 °F 73% 29.99 in 10.0 mi NNW 3.5 mph - N/A   Overcast
3:55 PM 32.0 °F - 24.4 °F 74% 30.00 in 10.0 mi Calm Calm - N/A   Overcast
4:15 PM 31.6 °F - 24.4 °F 75% 30.00 in 10.0 mi Calm Calm - N/A   Overcast
4:35 PM 31.6 °F 26.0 °F 24.4 °F 75% 30.01 in 10.0 mi North 5.8 mph - N/A   Overcast
4:55 PM 31.1 °F 25.4 °F 24.4 °F 76% 30.01 in 10.0 mi NNE 5.8 mph - N/A   Overcast
5:15 PM 30.9 °F 26.2 °F 24.3 °F 76% 30.02 in 10.0 mi North 4.6 mph - N/A   Overcast
5:35 PM 30.7 °F 26.0 °F 24.3 °F 77% 30.03 in 10.0 mi North 4.6 mph - N/A   Overcast
5:55 PM 30.2 °F - 24.4 °F 79% 30.03 in 10.0 mi Calm Calm - N/A   Overcast
6:15 PM 30.2 °F - 24.3 °F 79% 30.03 in 10.0 mi Calm Calm - N/A   Overcast
6:35 PM 30.2 °F 26.7 °F 24.1 °F 78% 30.04 in 10.0 mi North 3.5 mph - N/A   Overcast
6:55 PM 30.0 °F - 23.9 °F 78% 30.04 in 10.0 mi Calm Calm - N/A   Overcast
7:15 PM 30.0 °F - 24.3 °F 79% 30.04 in 10.0 mi Calm Calm - N/A   Overcast
7:35 PM 30.0 °F 25.2 °F 24.1 °F 79% 30.04 in 10.0 mi North 4.6 mph - N/A   Overcast
7:55 PM 29.8 °F - 23.9 °F 79% 30.05 in 10.0 mi Calm Calm - N/A   Overcast
8:15 PM 29.5 °F - 24.3 °F 81% 30.04 in 10.0 mi Calm Calm - N/A   Overcast
8:35 PM 29.5 °F - 24.3 °F 81% 30.05 in 10.0 mi Calm Calm - N/A   Overcast
8:55 PM 29.3 °F 25.6 °F 24.3 °F 81% 30.05 in 10.0 mi North 3.5 mph - N/A   Overcast
9:15 PM 29.3 °F - 24.4 °F 82% 30.05 in 10.0 mi Calm Calm - N/A   Overcast
9:35 PM 29.3 °F - 24.3 °F 81% 30.06 in 10.0 mi Calm Calm - N/A   Overcast
9:55 PM 29.1 °F - 24.3 °F 82% 30.05 in 10.0 mi Calm Calm - N/A   Overcast
10:15 PM 28.9 °F - 24.8 °F 84% 30.06 in 10.0 mi Calm Calm - N/A   Overcast
10:35 PM 28.9 °F - 24.4 °F 83% 30.06 in 10.0 mi Calm Calm - N/A   Overcast
10:55 PM 28.8 °F - 24.6 °F 84% 30.06 in 10.0 mi Calm Calm - N/A   Overcast
11:15 PM 28.9 °F 25.2 °F 24.6 °F 84% 30.06 in 10.0 mi WNW 3.5 mph - N/A   Overcast
11:35 PM 28.9 °F - 24.8 °F 84% 30.06 in 10.0 mi Calm Calm - N/A   Overcast
11:55 PM 28.9 °F - 25.3 °F 86% 30.06 in 7.0 mi Calm Calm - N/A   Overcast